Terminal Aerodrome Forecast
Issued by NWS

Home | Current Version | Previous Version | Text Only | Print | Product List | Glossary Off
Versions: 1 2 3 4 5 6 7 8 9 10 11 12 13 14 15 16 17 18 19 20 21 22 23 24 25 26 27 28 29 30 31 32 33 34 35

000
FTUS43 KGRB 311100
TAFRHI
TAF
KRHI 311120Z 3112/0112 VRB03KT 1/4SM FG VV002
      TEMPO 3112/3113 1 1/2SM BR BKN005
     FM311300 29006KT 4SM BR SCT015
     FM311400 29006KT P6SM SCT020
     FM311700 30007KT P6SM SCT050 SCT080
     FM010100 VRB02KT P6SM SCT080
      TEMPO 0108/0112 1 1/2SM BR SCT005=

USA.gov is the U.S. government's official web portal to all federal, state and local government web resources and services.